Time,TemperatureF,DewpointF,PressureIn,WindDirection,WindDirectionDegrees,WindSpeedMPH,WindSpeedGustMPH,Humidity,HourlyPrecipIn,Conditions,Clouds,dailyrainin,SolarRadiationWatts/m^2,SoftwareType,DateUTC
2013-12-20 00:00:00,53.4,49.6,29.70,SSE,158,0.0,0.0,87,0.00,,,0.00,0,Wunderground v.1.15,2013-12-20 06:00:00,
2013-12-20 00:10:00,53.4,49.6,29.70,SSE,158,0.0,0.0,87,0.00,,,0.00,0,Wunderground v.1.15,2013-12-20 06:10:00,
2013-12-20 00:20:00,53.5,49.7,29.69,SSE,155,0.0,3.0,87,0.00,,,0.00,0,Wunderground v.1.15,2013-12-20 06:20:00,
2013-12-20 00:25:00,53.6,49.8,29.69,SSE,155,1.0,4.0,87,0.00,,,0.00,0,Wunderground v.1.15,2013-12-20 06:25:00,
2013-12-20 00:30:00,53.6,49.8,29.69,SSE,155,1.0,1.0,87,0.00,,,0.00,0,Wunderground v.1.15,2013-12-20 06:30:00,
2013-12-20 00:35:00,53.6,49.8,29.69,SSE,155,1.0,4.0,87,0.00,,,0.00,0,Wunderground v.1.15,2013-12-20 06:35:00,
2013-12-20 00:45:00,53.7,49.9,29.69,SSE,154,2.0,6.0,87,0.00,,,0.00,0,Wunderground v.1.15,2013-12-20 06:45:00,
2013-12-20 00:55:00,53.7,49.9,29.68,SSE,152,1.0,6.0,87,0.00,,,0.00,0,Wunderground v.1.15,2013-12-20 06:55:00,
2013-12-20 01:00:00,53.7,49.9,29.68,SSE,151,0.0,0.0,87,0.00,,,0.00,0,Wunderground v.1.15,2013-12-20 07:00:00,
2013-12-20 01:05:00,53.7,49.9,29.70,WNW,294,2.0,10.0,87,0.00,,,0.00,0,Wunderground v.1.15,2013-12-20 07:05:00,
2013-12-20 01:15:00,53.2,49.4,29.69,NW,317,4.0,7.0,87,0.00,,,0.00,0,Wunderground v.1.15,2013-12-20 07:15:00,
2013-12-20 01:25:00,53.1,49.6,29.70,NW,316,1.0,5.0,88,0.00,,,0.00,0,Wunderground v.1.15,2013-12-20 07:25:00,
2013-12-20 01:30:00,53.1,49.6,29.69,NW,319,2.0,2.0,88,0.00,,,0.00,0,Wunderground v.1.15,2013-12-20 07:30:00,
2013-12-20 01:35:00,53.2,49.7,29.70,NW,316,2.0,7.0,88,0.00,,,0.00,0,Wunderground v.1.15,2013-12-20 07:35:00,
2013-12-20 01:45:00,53.5,50.3,29.70,NW,315,0.0,2.0,89,0.00,,,0.00,0,Wunderground v.1.15,2013-12-20 07:45:00,
2013-12-20 01:50:00,53.6,50.4,29.70,NW,315,0.0,0.0,89,0.00,,,0.00,0,Wunderground v.1.15,2013-12-20 07:50:00,
2013-12-20 02:00:00,54.0,50.8,29.70,NW,315,0.0,0.0,89,0.00,,,0.00,0,Wunderground v.1.15,2013-12-20 08:00:00,
2013-12-20 02:05:00,54.2,51.0,29.70,NW,315,0.0,0.0,89,0.00,,,0.00,0,Wunderground v.1.15,2013-12-20 08:05:00,
2013-12-20 02:15:00,54.2,50.7,29.71,WNW,300,2.0,4.0,88,0.00,,,0.00,0,Wunderground v.1.15,2013-12-20 08:15:00,
2013-12-20 02:20:00,53.1,49.0,29.71,NW,324,6.0,6.0,86,0.00,,,0.00,0,Wunderground v.1.15,2013-12-20 08:20:00,
2013-12-20 02:30:00,50.7,46.7,29.71,NNW,337,5.0,5.0,86,0.00,,,0.00,0,Wunderground v.1.15,2013-12-20 08:30:00,
2013-12-20 02:40:00,48.0,44.3,29.73,WNW,302,7.0,7.0,87,0.00,,,0.00,0,Wunderground v.1.15,2013-12-20 08:40:00,
2013-12-20 02:45:00,46.3,42.6,29.73,NW,323,10.0,19.0,87,0.00,,,0.00,0,Wunderground v.1.15,2013-12-20 08:45:00,
2013-12-20 02:55:00,44.4,41.1,29.74,NNW,327,11.0,19.0,88,0.00,,,0.00,0,Wunderground v.1.15,2013-12-20 08:55:00,
2013-12-20 03:00:00,43.9,40.9,29.74,NW,325,8.0,8.0,89,0.00,,,0.00,0,Wunderground v.1.15,2013-12-20 09:00:00,
2013-12-20 03:15:00,42.4,39.4,29.73,NW,319,7.0,14.0,89,0.00,,,0.00,0,Wunderground v.1.15,2013-12-20 09:15:00,
2013-12-20 03:20:00,41.9,39.2,29.73,NNW,346,8.0,8.0,90,0.00,,,0.00,0,Wunderground v.1.15,2013-12-20 09:20:00,
2013-12-20 03:25:00,41.5,38.8,29.73,North,351,6.0,10.0,90,0.00,,,0.00,0,Wunderground v.1.15,2013-12-20 09:25:00,
2013-12-20 03:35:00,41.1,38.7,29.74,NW,325,5.0,10.0,91,0.00,,,0.00,0,Wunderground v.1.15,2013-12-20 09:35:00,
2013-12-20 03:40:00,41.0,38.6,29.75,NW,320,6.0,12.0,91,0.00,,,0.00,0,Wunderground v.1.15,2013-12-20 09:40:00,
2013-12-20 03:50:00,40.6,38.2,29.75,NW,317,9.0,18.0,91,0.00,,,0.00,0,Wunderground v.1.15,2013-12-20 09:50:00,
2013-12-20 04:00:00,40.1,37.7,29.76,NW,310,10.0,10.0,91,0.00,,,0.00,0,Wunderground v.1.15,2013-12-20 10:00:00,
2013-12-20 04:05:00,39.8,37.7,29.76,NW,318,10.0,16.0,92,0.00,,,0.00,0,Wunderground v.1.15,2013-12-20 10:05:00,
2013-12-20 04:10:00,39.5,37.1,29.76,NW,321,11.0,17.0,91,0.00,,,0.00,0,Wunderground v.1.15,2013-12-20 10:10:00,
2013-12-20 04:15:00,39.2,36.8,29.75,NW,320,11.0,20.0,91,0.00,,,0.00,0,Wunderground v.1.15,2013-12-20 10:15:00,
2013-12-20 04:25:00,38.7,36.6,29.76,NW,312,11.0,19.0,92,0.00,,,0.00,0,Wunderground v.1.15,2013-12-20 10:25:00,
2013-12-20 04:35:00,38.1,36.0,29.76,NW,324,9.0,17.0,92,0.00,,,0.00,0,Wunderground v.1.15,2013-12-20 10:35:00,
2013-12-20 04:45:00,37.4,35.3,29.76,NW,310,10.0,16.0,92,0.00,,,0.00,0,Wunderground v.1.15,2013-12-20 10:45:00,
2013-12-20 04:50:00,37.1,35.0,29.77,NNW,329,11.0,18.0,92,0.00,,,0.00,0,Wunderground v.1.15,2013-12-20 10:50:00,
2013-12-20 05:00:00,36.8,35.0,29.77,NNW,328,9.0,9.0,93,0.00,,,0.00,0,Wunderground v.1.15,2013-12-20 11:00:00,
2013-12-20 05:10:00,36.3,34.5,29.76,NNW,327,10.0,10.0,93,0.00,,,0.00,0,Wunderground v.1.15,2013-12-20 11:10:00,
2013-12-20 05:15:00,36.1,34.3,29.76,NNW,342,11.0,11.0,93,0.00,,,0.00,0,Wunderground v.1.15,2013-12-20 11:15:00,
2013-12-20 05:25:00,35.6,33.8,29.77,NW,321,8.0,15.0,93,0.00,,,0.00,0,Wunderground v.1.15,2013-12-20 11:25:00,
2013-12-20 05:30:00,35.5,33.7,29.77,NW,315,8.0,15.0,93,0.00,,,0.00,0,Wunderground v.1.15,2013-12-20 11:30:00,
2013-12-20 05:40:00,35.3,33.5,29.78,NNW,332,8.0,8.0,93,0.00,,,0.00,0,Wunderground v.1.15,2013-12-20 11:40:00,
2013-12-20 05:45:00,35.3,33.5,29.78,NNW,329,7.0,12.0,93,0.00,,,0.00,0,Wunderground v.1.15,2013-12-20 11:45:00,
2013-12-20 05:50:00,35.1,33.3,29.78,NNW,341,9.0,15.0,93,0.00,,,0.00,0,Wunderground v.1.15,2013-12-20 11:50:00,
2013-12-20 05:55:00,35.0,33.2,29.79,NW,314,9.0,17.0,93,0.00,,,0.00,0,Wunderground v.1.15,2013-12-20 11:55:00,
2013-12-20 06:05:00,34.7,32.9,29.80,NW,315,8.0,10.0,93,0.00,,,0.00,0,Wunderground v.1.15,2013-12-20 12:05:00,
2013-12-20 06:10:00,34.6,32.8,29.80,NW,317,9.0,9.0,93,0.00,,,0.00,0,Wunderground v.1.15,2013-12-20 12:10:00,
2013-12-20 06:20:00,34.4,32.6,29.81,NW,323,10.0,17.0,93,0.00,,,0.00,0,Wunderground v.1.15,2013-12-20 12:20:00,
2013-12-20 06:30:00,34.3,32.8,29.81,NW,317,8.0,8.0,94,0.00,,,0.00,0,Wunderground v.1.15,2013-12-20 12:30:00,
2013-12-20 06:35:00,34.3,32.8,29.81,NW,325,6.0,12.0,94,0.00,,,0.00,0,Wunderground v.1.15,2013-12-20 12:35:00,
2013-12-20 06:45:00,34.3,32.8,29.81,NNW,331,7.0,14.0,94,0.00,,,0.00,0,Wunderground v.1.15,2013-12-20 12:45:00,
2013-12-20 06:50:00,34.1,32.6,29.82,NW,323,9.0,16.0,94,0.00,,,0.00,0,Wunderground v.1.15,2013-12-20 12:50:00,
2013-12-20 07:00:00,33.9,32.4,29.83,NW,304,8.0,15.0,94,0.00,,,0.00,0,Wunderground v.1.15,2013-12-20 13:00:00,
2013-12-20 07:05:00,33.9,32.4,29.83,NW,306,7.0,15.0,94,0.00,,,0.00,0,Wunderground v.1.15,2013-12-20 13:05:00,
2013-12-20 07:15:00,33.6,32.1,29.83,NW,317,10.0,10.0,94,0.00,,,0.00,0,Wunderground v.1.15,2013-12-20 13:15:00,
2013-12-20 07:25:00,33.4,31.9,29.84,WNW,301,7.0,16.0,94,0.00,,,0.00,0,Wunderground v.1.15,2013-12-20 13:25:00,
2013-12-20 07:30:00,33.2,31.7,29.84,NW,319,8.0,18.0,94,0.00,,,0.00,0,Wunderground v.1.15,2013-12-20 13:30:00,
2013-12-20 07:40:00,32.7,31.2,29.83,NW,322,10.0,18.0,94,0.00,,,0.00,0,Wunderground v.1.15,2013-12-20 13:40:00,
2013-12-20 07:50:00,32.5,31.0,29.84,NNW,331,6.0,14.0,94,0.00,,,0.00,0,Wunderground v.1.15,2013-12-20 13:50:00,
2013-12-20 07:55:00,32.4,30.9,29.84,NNW,331,5.0,14.0,94,0.00,,,0.00,0,Wunderground v.1.15,2013-12-20 13:55:00,
2013-12-20 08:00:00,32.3,30.8,29.84,NW,317,7.0,7.0,94,0.00,,,0.00,5,Wunderground v.1.15,2013-12-20 14:00:00,
2013-12-20 08:10:00,32.2,30.7,29.85,NNW,327,8.0,8.0,94,0.00,,,0.00,5,Wunderground v.1.15,2013-12-20 14:10:00,
2013-12-20 08:20:00,32.0,30.5,29.85,WNW,303,6.0,12.0,94,0.00,,,0.00,5,Wunderground v.1.15,2013-12-20 14:20:00,
2013-12-20 08:25:00,32.0,30.5,29.85,NW,305,6.0,12.0,94,0.00,,,0.00,7,Wunderground v.1.15,2013-12-20 14:25:00,
2013-12-20 08:35:00,31.4,29.9,29.86,NW,305,7.0,15.0,94,0.00,,,0.00,7,Wunderground v.1.15,2013-12-20 14:35:00,
2013-12-20 08:45:00,30.9,29.4,29.87,WNW,298,9.0,16.0,94,0.00,,,0.00,12,Wunderground v.1.15,2013-12-20 14:45:00,
2013-12-20 08:50:00,30.7,29.2,29.88,WNW,285,9.0,20.0,94,0.00,,,0.00,9,Wunderground v.1.15,2013-12-20 14:50:00,
2013-12-20 09:00:00,30.2,28.7,29.88,NW,304,10.0,19.0,94,0.00,,,0.00,16,Wunderground v.1.15,2013-12-20 15:00:00,
2013-12-20 09:10:00,30.1,28.6,29.88,NW,316,9.0,18.0,94,0.00,,,0.00,19,Wunderground v.1.15,2013-12-20 15:10:00,
2013-12-20 09:20:00,29.9,28.4,29.90,WNW,302,10.0,10.0,94,0.00,,,0.00,14,Wunderground v.1.15,2013-12-20 15:20:00,
2013-12-20 09:30:00,29.9,28.4,29.91,NW,313,9.0,17.0,94,0.00,,,0.00,18,Wunderground v.1.15,2013-12-20 15:30:00,
2013-12-20 09:40:00,29.9,28.4,29.91,NW,306,8.0,8.0,94,0.00,,,0.00,19,Wunderground v.1.15,2013-12-20 15:40:00,
2013-12-20 09:45:00,29.9,28.4,29.91,NW,309,7.0,13.0,94,0.00,,,0.00,26,Wunderground v.1.15,2013-12-20 15:45:00,
2013-12-20 09:55:00,29.7,28.2,29.91,NNW,332,10.0,10.0,94,0.00,,,0.00,26,Wunderground v.1.15,2013-12-20 15:55:00,
2013-12-20 10:05:00,29.6,28.1,29.92,NW,306,8.0,18.0,94,0.00,,,0.00,28,Wunderground v.1.15,2013-12-20 16:05:00,
2013-12-20 10:10:00,29.5,28.0,29.92,WNW,297,10.0,10.0,94,0.00,,,0.00,30,Wunderground v.1.15,2013-12-20 16:10:00,
2013-12-20 10:20:00,29.3,27.8,29.92,WNW,301,8.0,14.0,94,0.00,,,0.00,33,Wunderground v.1.15,2013-12-20 16:20:00,
2013-12-20 10:30:00,29.2,27.7,29.92,WNW,302,7.0,7.0,94,0.00,,,0.00,58,Wunderground v.1.15,2013-12-20 16:30:00,
2013-12-20 10:35:00,29.1,27.6,29.93,WNW,302,9.0,9.0,94,0.00,,,0.00,49,Wunderground v.1.15,2013-12-20 16:35:00,
2013-12-20 10:45:00,29.2,27.7,29.93,WNW,287,7.0,11.0,94,0.00,,,0.00,37,Wunderground v.1.15,2013-12-20 16:45:00,
2013-12-20 10:55:00,29.2,27.7,29.93,WNW,290,8.0,14.0,94,0.00,,,0.00,40,Wunderground v.1.15,2013-12-20 16:55:00,
2013-12-20 11:00:00,29.2,27.7,29.93,West,275,8.0,15.0,94,0.00,,,0.00,40,Wunderground v.1.15,2013-12-20 17:00:00,
2013-12-20 11:06:00,28.9,27.1,29.93,WNW,291,8.0,16.0,93,0.00,,,0.00,46,Wunderground v.1.15,2013-12-20 17:06:00,
2013-12-20 11:15:00,28.8,27.0,29.93,WNW,286,8.0,9.0,93,0.00,,,0.00,44,Wunderground v.1.15,2013-12-20 17:15:00,
2013-12-20 11:25:00,28.5,26.7,29.93,WNW,290,9.0,14.0,93,0.00,,,0.00,54,Wunderground v.1.15,2013-12-20 17:25:00,
2013-12-20 11:30:00,28.3,26.5,29.93,WNW,286,9.0,16.0,93,0.00,,,0.00,49,Wunderground v.1.15,2013-12-20 17:30:00,
2013-12-20 11:40:00,28.1,26.3,29.92,NW,304,9.0,19.0,93,0.00,,,0.00,49,Wunderground v.1.15,2013-12-20 17:40:00,
2013-12-20 11:45:00,28.0,26.2,29.92,WNW,284,8.0,19.0,93,0.00,,,0.00,54,Wunderground v.1.15,2013-12-20 17:45:00,
2013-12-20 11:55:00,27.8,26.0,29.91,NW,309,9.0,19.0,93,0.00,,,0.00,60,Wunderground v.1.15,2013-12-20 17:55:00,
2013-12-20 12:00:00,27.7,25.9,29.91,WNW,303,9.0,16.0,93,0.00,,,0.00,65,Wunderground v.1.15,2013-12-20 18:00:00,
2013-12-20 12:05:00,27.7,25.9,29.91,NW,312,9.0,17.0,93,0.00,,,0.00,62,Wunderground v.1.15,2013-12-20 18:05:00,
2013-12-20 12:15:00,27.7,25.7,29.91,WNW,302,8.0,14.0,92,0.00,,,0.00,77,Wunderground v.1.15,2013-12-20 18:15:00,
2013-12-20 12:25:00,27.8,25.8,29.91,WNW,302,5.0,15.0,92,0.00,,,0.00,47,Wunderground v.1.15,2013-12-20 18:25:00,
2013-12-20 12:30:00,27.8,25.8,29.92,WNW,292,5.0,5.0,92,0.00,,,0.00,58,Wunderground v.1.15,2013-12-20 18:30:00,
2013-12-20 12:35:00,27.6,25.6,29.91,WNW,286,6.0,12.0,92,0.00,,,0.00,69,Wunderground v.1.15,2013-12-20 18:35:00,
2013-12-20 12:45:00,27.6,25.6,29.92,WNW,288,6.0,10.0,92,0.00,,,0.00,58,Wunderground v.1.15,2013-12-20 18:45:00,
2013-12-20 12:55:00,27.4,25.4,29.92,WNW,291,6.0,13.0,92,0.00,,,0.00,60,Wunderground v.1.15,2013-12-20 18:55:00,
2013-12-20 13:00:00,27.4,25.4,29.92,WNW,298,6.0,11.0,92,0.00,,,0.00,67,Wunderground v.1.15,2013-12-20 19:00:00,
2013-12-20 13:10:00,27.5,25.5,29.92,WNW,288,5.0,5.0,92,0.00,,,0.00,77,Wunderground v.1.15,2013-12-20 19:10:00,
2013-12-20 13:20:00,27.4,25.4,29.93,WNW,290,4.0,12.0,92,0.00,,,0.00,53,Wunderground v.1.15,2013-12-20 19:20:00,
2013-12-20 13:25:00,27.5,25.5,29.93,WNW,298,5.0,12.0,92,0.00,,,0.00,44,Wunderground v.1.15,2013-12-20 19:25:00,
2013-12-20 13:30:00,27.3,25.0,29.92,WNW,301,6.0,6.0,91,0.00,,,0.00,39,Wunderground v.1.15,2013-12-20 19:30:00,
2013-12-20 13:35:00,27.0,24.7,29.93,WNW,292,7.0,7.0,91,0.00,,,0.00,51,Wunderground v.1.15,2013-12-20 19:35:00,
2013-12-20 13:45:00,26.7,24.4,29.92,West,279,7.0,15.0,91,0.00,,,0.00,35,Wunderground v.1.15,2013-12-20 19:45:00,
2013-12-20 13:55:00,26.5,24.2,29.93,West,277,7.0,16.0,91,0.00,,,0.00,32,Wunderground v.1.15,2013-12-20 19:55:00,
2013-12-20 14:00:00,26.6,24.6,29.93,West,275,5.0,5.0,92,0.00,,,0.00,35,Wunderground v.1.15,2013-12-20 20:00:00,
2013-12-20 14:10:00,26.4,24.1,29.94,West,279,4.0,4.0,91,0.00,,,0.00,35,Wunderground v.1.15,2013-12-20 20:10:00,
2013-12-20 14:20:00,26.4,24.4,29.93,WNW,292,3.0,10.0,92,0.00,,,0.00,33,Wunderground v.1.15,2013-12-20 20:20:00,
2013-12-20 14:30:00,26.1,23.8,29.93,West,275,7.0,7.0,91,0.00,,,0.00,40,Wunderground v.1.15,2013-12-20 20:30:00,
2013-12-20 14:40:00,26.0,23.7,29.93,WNW,295,6.0,13.0,91,0.00,,,0.00,35,Wunderground v.1.15,2013-12-20 20:40:00,
2013-12-20 14:45:00,25.9,23.6,29.93,WNW,295,7.0,13.0,91,0.00,,,0.00,47,Wunderground v.1.15,2013-12-20 20:45:00,
2013-12-20 14:55:00,25.6,23.3,29.93,West,271,5.0,14.0,91,0.00,,,0.00,35,Wunderground v.1.15,2013-12-20 20:55:00,
2013-12-20 15:00:00,25.5,23.5,29.93,West,271,6.0,6.0,92,0.00,,,0.00,28,Wunderground v.1.15,2013-12-20 21:00:00,
2013-12-20 15:10:00,25.6,23.6,29.93,West,275,4.0,10.0,92,0.00,,,0.00,56,Wunderground v.1.15,2013-12-20 21:10:00,
2013-12-20 15:15:00,25.7,23.7,29.93,WSW,247,4.0,13.0,92,0.00,,,0.00,44,Wunderground v.1.15,2013-12-20 21:15:00,
2013-12-20 15:20:00,25.7,23.7,29.93,West,279,5.0,11.0,92,0.00,,,0.00,21,Wunderground v.1.15,2013-12-20 21:20:00,
2013-12-20 15:30:00,25.8,23.8,29.94,NW,314,6.0,11.0,92,0.00,,,0.00,14,Wunderground v.1.15,2013-12-20 21:30:00,
2013-12-20 15:35:00,25.7,23.7,29.94,NW,313,7.0,14.0,92,0.00,,,0.00,16,Wunderground v.1.15,2013-12-20 21:35:00,
2013-12-20 15:45:00,25.6,23.6,29.94,NW,304,7.0,7.0,92,0.00,,,0.00,21,Wunderground v.1.15,2013-12-20 21:45:00,
2013-12-20 15:55:00,25.2,22.9,29.94,WNW,282,6.0,12.0,91,0.00,,,0.00,18,Wunderground v.1.15,2013-12-20 21:55:00,
2013-12-20 16:00:00,25.1,23.1,29.94,West,273,6.0,6.0,92,0.00,,,0.00,14,Wunderground v.1.15,2013-12-20 22:00:00,
2013-12-20 16:10:00,25.1,23.1,29.95,WNW,298,7.0,13.0,92,0.00,,,0.00,14,Wunderground v.1.15,2013-12-20 22:10:00,
2013-12-20 16:20:00,25.0,23.0,29.95,WNW,303,6.0,6.0,92,0.00,,,0.00,16,Wunderground v.1.15,2013-12-20 22:20:00,
2013-12-20 16:30:00,25.1,23.1,29.95,NW,308,7.0,14.0,92,0.00,,,0.00,5,Wunderground v.1.15,2013-12-20 22:30:00,
2013-12-20 16:35:00,25.1,23.1,29.95,WNW,301,5.0,14.0,92,0.00,,,0.00,0,Wunderground v.1.15,2013-12-20 22:35:00,
2013-12-20 16:45:00,25.1,23.1,29.96,NW,309,3.0,14.0,92,0.00,,,0.00,0,Wunderground v.1.15,2013-12-20 22:45:00,
2013-12-20 16:50:00,25.1,22.8,29.96,WNW,287,4.0,4.0,91,0.00,,,0.00,0,Wunderground v.1.15,2013-12-20 22:50:00,
2013-12-20 17:00:00,24.9,22.9,29.97,West,271,3.0,3.0,92,0.00,,,0.00,0,Wunderground v.1.15,2013-12-20 23:00:00,
2013-12-20 17:05:00,24.9,22.6,29.97,WNW,293,4.0,4.0,91,0.00,,,0.00,0,Wunderground v.1.15,2013-12-20 23:05:00,
2013-12-20 17:15:00,24.9,22.6,29.98,WNW,287,4.0,11.0,91,0.00,,,0.00,0,Wunderground v.1.15,2013-12-20 23:15:00,
2013-12-20 17:25:00,24.9,22.6,29.98,WNW,289,4.0,11.0,91,0.00,,,0.00,0,Wunderground v.1.15,2013-12-20 23:25:00,
2013-12-20 17:30:00,24.9,22.6,29.98,WNW,294,4.0,11.0,91,0.00,,,0.00,0,Wunderground v.1.15,2013-12-20 23:30:00,
2013-12-20 17:40:00,24.9,22.6,29.98,WNW,302,1.0,6.0,91,0.00,,,0.00,0,Wunderground v.1.15,2013-12-20 23:40:00,
2013-12-20 17:50:00,24.8,22.5,29.97,WNW,286,4.0,4.0,91,0.00,,,0.00,0,Wunderground v.1.15,2013-12-20 23:50:00,
2013-12-20 17:55:00,24.7,22.4,29.97,NW,309,4.0,10.0,91,0.00,,,0.00,0,Wunderground v.1.15,2013-12-20 23:55:00,
2013-12-20 18:05:00,24.6,22.3,29.97,WNW,292,3.0,5.0,91,0.00,,,0.00,0,Wunderground v.1.15,2013-12-21 00:05:00,
2013-12-20 18:15:00,24.5,22.2,29.97,WNW,292,3.0,5.0,91,0.00,,,0.00,0,Wunderground v.1.15,2013-12-21 00:15:00,
2013-12-20 18:20:00,24.4,22.2,29.96,WNW,300,3.0,9.0,91,0.00,,,0.00,0,Wunderground v.1.15,2013-12-21 00:20:00,
2013-12-20 18:30:00,24.4,22.2,29.97,WNW,302,4.0,9.0,91,0.00,,,0.00,0,Wunderground v.1.15,2013-12-21 00:30:00,
2013-12-20 18:40:00,24.3,22.1,29.98,WNW,294,4.0,4.0,91,0.00,,,0.00,0,Wunderground v.1.15,2013-12-21 00:40:00,
2013-12-20 18:45:00,24.3,22.1,29.98,WNW,294,1.0,7.0,91,0.00,,,0.00,0,Wunderground v.1.15,2013-12-21 00:45:00,
2013-12-20 18:55:00,24.3,22.1,29.97,WNW,296,2.0,3.0,91,0.00,,,0.00,0,Wunderground v.1.15,2013-12-21 00:55:00,
2013-12-20 19:00:00,24.2,22.0,29.98,WNW,286,3.0,9.0,91,0.00,,,0.00,0,Wunderground v.1.15,2013-12-21 01:00:00,
2013-12-20 19:05:00,24.2,22.0,29.98,WNW,292,4.0,12.0,91,0.00,,,0.00,0,Wunderground v.1.15,2013-12-21 01:05:00,
2013-12-20 19:15:00,24.3,22.1,29.98,WNW,296,3.0,9.0,91,0.00,,,0.00,0,Wunderground v.1.15,2013-12-21 01:15:00,
2013-12-20 19:20:00,24.3,22.1,29.97,WNW,300,2.0,6.0,91,0.00,,,0.00,0,Wunderground v.1.15,2013-12-21 01:20:00,
2013-12-20 19:30:00,24.3,22.1,29.96,WNW,303,3.0,3.0,91,0.00,,,0.00,0,Wunderground v.1.15,2013-12-21 01:30:00,
2013-12-20 19:35:00,24.3,22.1,29.96,WNW,296,2.0,5.0,91,0.00,,,0.00,0,Wunderground v.1.15,2013-12-21 01:35:00,
2013-12-20 19:40:00,24.3,22.1,29.95,NW,304,2.0,7.0,91,0.00,,,0.00,0,Wunderground v.1.15,2013-12-21 01:40:00,
2013-12-20 19:50:00,24.3,22.1,29.97,WNW,294,3.0,3.0,91,0.00,,,0.00,0,Wunderground v.1.15,2013-12-21 01:50:00,
2013-12-20 19:55:00,24.3,22.1,29.95,WNW,294,2.0,7.0,91,0.00,,,0.00,0,Wunderground v.1.15,2013-12-21 01:55:00,
2013-12-20 20:05:00,24.4,22.2,29.95,WNW,296,1.0,7.0,91,0.00,,,0.00,0,Wunderground v.1.15,2013-12-21 02:05:00,
2013-12-20 20:10:00,24.3,22.1,29.95,WNW,296,0.0,5.0,91,0.00,,,0.00,0,Wunderground v.1.15,2013-12-21 02:10:00,
2013-12-20 20:20:00,24.3,22.1,29.95,WNW,296,0.0,0.0,91,0.00,,,0.00,0,Wunderground v.1.15,2013-12-21 02:20:00,
2013-12-20 20:30:00,24.2,22.0,29.94,WNW,297,0.0,0.0,91,0.00,,,0.00,0,Wunderground v.1.15,2013-12-21 02:30:00,
2013-12-20 20:35:00,24.2,22.0,29.95,WNW,296,0.0,0.0,91,0.00,,,0.00,0,Wunderground v.1.15,2013-12-21 02:35:00,
2013-12-20 20:45:00,24.4,21.9,29.95,WNW,296,0.0,0.0,90,0.00,,,0.00,0,Wunderground v.1.15,2013-12-21 02:45:00,
2013-12-20 20:50:00,24.4,21.9,29.95,WNW,296,0.0,0.0,90,0.00,,,0.00,0,Wunderground v.1.15,2013-12-21 02:50:00,
2013-12-20 21:00:00,24.4,21.9,29.95,WNW,296,0.0,0.0,90,0.00,,,0.00,0,Wunderground v.1.15,2013-12-21 03:00:00,
2013-12-20 21:05:00,24.4,21.9,29.95,WNW,296,0.0,0.0,90,0.00,,,0.00,0,Wunderground v.1.15,2013-12-21 03:05:00,
2013-12-20 21:10:00,24.5,22.0,29.95,WNW,296,0.0,0.0,90,0.00,,,0.00,0,Wunderground v.1.15,2013-12-21 03:10:00,
2013-12-20 21:20:00,24.5,22.0,29.95,WNW,296,0.0,0.0,90,0.00,,,0.00,0,Wunderground v.1.15,2013-12-21 03:20:00,
2013-12-20 21:30:00,24.5,22.0,29.95,WNW,296,0.0,0.0,90,0.00,,,0.00,0,Wunderground v.1.15,2013-12-21 03:30:00,
2013-12-20 21:40:00,24.5,22.0,29.96,WNW,296,0.0,0.0,90,0.00,,,0.00,0,Wunderground v.1.15,2013-12-21 03:40:00,
2013-12-20 21:45:00,24.6,22.1,29.96,WNW,296,0.0,0.0,90,0.00,,,0.00,0,Wunderground v.1.15,2013-12-21 03:45:00,
2013-12-20 21:55:00,24.6,22.1,29.96,WNW,296,0.0,0.0,90,0.00,,,0.00,0,Wunderground v.1.15,2013-12-21 03:55:00,
2013-12-20 22:00:00,24.7,22.2,29.98,WNW,296,0.0,0.0,90,0.00,,,0.00,0,Wunderground v.1.15,2013-12-21 04:00:00,
2013-12-20 22:10:00,24.6,22.1,29.98,WNW,293,1.0,4.0,90,0.00,,,0.00,0,Wunderground v.1.15,2013-12-21 04:10:00,
2013-12-20 22:20:00,24.5,22.0,29.98,WNW,287,0.0,4.0,90,0.00,,,0.00,0,Wunderground v.1.15,2013-12-21 04:20:00,
2013-12-20 22:30:00,24.5,22.0,29.97,WNW,284,0.0,0.0,90,0.00,,,0.00,0,Wunderground v.1.15,2013-12-21 04:30:00,
2013-12-20 22:40:00,24.5,22.0,29.96,WNW,284,0.0,0.0,90,0.00,,,0.00,0,Wunderground v.1.15,2013-12-21 04:40:00,
2013-12-20 22:45:00,24.5,22.0,29.95,WNW,284,0.0,0.0,90,0.00,,,0.00,0,Wunderground v.1.15,2013-12-21 04:45:00,
2013-12-20 22:55:00,24.6,22.1,29.95,WNW,294,1.0,3.0,90,0.00,,,0.00,0,Wunderground v.1.15,2013-12-21 04:55:00,
2013-12-20 23:00:00,24.6,22.1,29.96,WNW,294,2.0,2.0,90,0.00,,,0.00,0,Wunderground v.1.15,2013-12-21 05:00:00,
2013-12-20 23:05:00,24.7,22.2,29.97,WNW,294,2.0,6.0,90,0.00,,,0.00,0,Wunderground v.1.15,2013-12-21 05:05:00,
2013-12-20 23:10:00,24.6,22.1,29.97,WNW,292,1.0,1.0,90,0.00,,,0.00,0,Wunderground v.1.15,2013-12-21 05:10:00,
2013-12-20 23:15:00,24.7,22.2,29.96,WNW,292,1.0,6.0,90,0.00,,,0.00,0,Wunderground v.1.15,2013-12-21 05:15:00,
2013-12-20 23:25:00,24.7,22.2,29.96,WNW,292,0.0,1.0,90,0.00,,,0.00,0,Wunderground v.1.15,2013-12-21 05:25:00,
2013-12-20 23:30:00,24.7,22.2,29.96,WNW,292,1.0,5.0,90,0.00,,,0.00,0,Wunderground v.1.15,2013-12-21 05:30:00,
2013-12-20 23:40:00,24.7,22.2,29.97,WNW,292,1.0,6.0,90,0.00,,,0.00,0,Wunderground v.1.15,2013-12-21 05:40:00,
2013-12-20 23:45:00,24.7,22.2,29.96,WNW,292,0.0,0.0,90,0.00,,,0.00,0,Wunderground v.1.15,2013-12-21 05:45:00,
2013-12-20 23:50:00,24.7,22.2,29.97,WNW,291,0.0,0.0,90,0.00,,,0.00,0,Wunderground v.1.15,2013-12-21 05:50:00,